Bâcovăţ

Moldova     47˚08′51″N   28˚21′46″E
temp.,
°C
wind,
m/s
gust,
m/s
humid.,
%
clouds,
%
prec.,
mm/h
press.,
hPa
HPBL,
m
27 november, fri
fri2723:00+1˚s23670 0.0 102335
02:00s22800 0.0 102323
05:00ssw11830 0.0 102221
08:00wsw11800 0.0 102221
11:00+4˚wnw11541 0.0 1021248
14:00+6˚nnw12460 0.0 1020319
17:00+3˚wnw015839 0.0 102022
20:00+2˚nw126068 0.0 102022
28 november, sat
sat2823:00+2˚nw2263100 0.0 102122
02:00+1˚nnw226895 0.0 102022
05:00nnw128570 0.0 102021
08:00+2˚nne118576 0.0 102022
11:00+3˚n1179100 0.0 1020188
14:00+5˚nne0172100 0.0 1018347
17:00+3˚ne1185100 0.0 101822
20:00+2˚ne1189100 0.0 101922
29 november, sun
sun2923:00+3˚n1187100 0.0 101924
02:00+2˚nne0197100 0.1 101960
05:00+2˚nnw1297100 0.4 1019134
08:00+2˚nnw2396100 0.8 1019253
11:00+2˚nnw2387100 0.1 1020349
14:00+3˚nnw2278100 0.1 1020520
17:00+2˚n2276100 0.0 1021477
20:00+2˚nne1172100 0.0 1022229
30 november, mon
mon3023:00+2˚ne1170100 0.0 102248
02:00+2˚ene1170100 0.0 102272
05:00+2˚ne1270100 0.0 1022101
08:00+1˚ne2578100 0.0 1023310
11:00nne3593100 0.9 1023329
14:00n5797100 2.6 1024413
17:00n6997100 1.4 1024500
20:00−1˚n61094100 2.1 1025581
1 december, tue
tue123:00−1˚n51082100 0.3 1026604
02:00−1˚n61183100 0.4 1026571
05:00−2˚nnw5108497 0.1 1026466
08:00−2˚nnw599598 0.2 1026418
11:00−1˚nnw689399 0.3 1026452
14:00n579398 0.5 1024503
17:00n479598 0.1 1024399
20:00−1˚n259896 0.2 1024246